Location: Robledo de Chavela
(40.5014°N, 4.2377°W)
Time: 14:01:39
(UTC+00:00)

Okean 2 Rocket - Visible Passes

Search period start: 12 July 2024 00:00
Search period end: 22 July 2024 00:00
Orbit: 615 x 636 km, 82.5° (Epoch: 12 July)

Date Brightness Start Highest point End Pass type
(mag) Time Alt. Az. Time Alt. Az. Time Alt. Az.
12 Jul 3.3 20:33:50 10° N 20:38:16 53° E 20:42:38 10° SSE visible
12 Jul 5.8 22:13:42 10° WNW 22:15:43 13° W 22:17:45 10° WSW visible
13 Jul 3.3 20:53:13 10° N 20:57:44 76° W 21:02:11 10° S visible
14 Jul 4.5 21:12:56 10° NNW 21:17:05 37° W 21:21:12 10° SSW visible
15 Jul 5.5 21:33:08 10° NW 21:36:19 19° W 21:39:30 10° SW visible
16 Jul 3.1 20:13:39 10° N 20:18:09 70° E 20:22:36 10° SSE visible
17 Jul 3.8 20:33:09 10° NNW 20:37:34 57° W 20:41:56 10° S visible
18 Jul 5.0 20:53:01 10° NNW 20:56:52 29° W 21:00:42 10° SSW visible
19 Jul 5.9 21:13:31 10° NW 21:16:04 15° W 21:18:36 10° WSW visible
21 Jul 4.4 20:13:07 10° NNW 20:17:22 43° W 20:21:35 10° SSW visible
